All Trees - Session and Form Data

View All Sessions and Data Gathered for your Organization

Organization:

Dates (Local Time): Aug 17, 2019 to Aug 24, 2019
# of Sessions: 405



Tree Source Session ID Start Time End Time Duration Acne_1 Acne_2 Acne_3 Acne_4 Acne_5 Agents Back_4 Body_1 Body_2 Body_3 Critical Customer_Name Feedback H Industry Instances Name Note Objections Product Role Score State Support_Area Use_Case a acne address1 address2 age age_survey agent agent_first_name agent_name agent_tags app b business car1_make car1_model car1_year car2_make car2_model car2_year car3_make car3_model car3_year car4_make car4_model car4_year cause cf_custom cf_product check_name check_score city color combo_score comment company container_url cs cs2 custom_score dark_score data_entered data_transfer description echoism email extreme_narcissism fd_cf_product fd_description fd_email fd_name fd_subject features food format fruit gender gender_survey grade habits healthy_narcissism how_help info_on_turndowns integrations keyboard language name objection_notes organization pdf_url phone phone_calls pick_a_city radio radio_score renewal requester_email requester_name score score1000 session_history skin state state_abbreviation timestamp tz usa userdata v2 var1 website zd_ticket_id zendesk_tags zip zt_browser zt_browser_language zt_city zt_country zt_ip zt_isp zt_org zt_regionName zt_tz zt_tz_encoded zt_zip
Webhook Zip Code Demo (with Logic Node) Gallery User Gallery66-15660279613856 2019-08-17 00:46:01 2019-08-17 00:46:08 7 0 96161
Medical Scheduling Demo Gallery User Gallery104-15660383463035 2019-08-17 03:39:07 2019-08-17 03:39:37 30 0
Diabetes Risk Test Zingtree+Hosted ea08096f008f48988db709851168fbb4 2019-08-17 04:42:34 2019-08-17 04:43:23 49 4
Webhook Zip Code Demo (with Logic Node) Gallery User Gallery66-15660634155169 2019-08-17 10:36:56 2019-08-17 10:37:50 54 San Anselmo 0 California CA 94960
Agent Script - Set Appointment Zingtree+Hosted e7f4f6c115f64daf89bc9b7cd4acd56d 2019-08-17 10:58:06 2019-08-17 11:01:33 207 0
Astrology Site - End-user Troubleshooting Zingtree+Hosted 18d87588932949f1b2151b57e313a650 2019-08-17 13:48:22 2019-08-17 13:51:14 172 https://zingtree.com/application/support.php?gclid=EAIaIQobChMI_562y-OK5AIVw4XVCh0w9ADaEAAYASAAEgK7FfD_BwE 0 Safari en Birmingham United Kingdom 92.239.94.73 Virgin Media Limited virginmedia.com England +01:00 %2B01%3A00 B3 2AS
Bicycle Types: Which Bike Is Right for You? Gallery User Gallery98-15660805017773 2019-08-17 15:21:41 2019-08-17 15:21:48 7 0
Zingtree Tour Zingtree+Hosted 9ae76b7730a04aaba5ad58ac47e9e2be 2019-08-17 16:27:45 2019-08-17 16:30:10 145 0
Zingtree Tour Zingtree+Hosted 1868ed3db92f41b8903ebf6d7b188a65 2019-08-17 18:08:40 2019-08-17 18:09:39 59 0
TV Power Troubleshooter Zingtree+Hosted 365725cf4ec845ffb8c3f4428dfd1d64 2019-08-18 04:14:35 2019-08-18 04:14:48 13 0
Skin Acne Assessment Gallery User Gallery144-15661359966313 2019-08-18 06:46:38 2019-08-18 06:47:52 74 1 1 0 0 0 0 14 4 0 3 1 0 5
Bicycle Types: Which Bike Is Right for You? Gallery User Gallery98-15661706134730 2019-08-18 16:23:34 2019-08-18 16:23:45 11 0
TV Power Troubleshooter Zingtree+Hosted 2e5dced453e04bebbdb4b04bdadfb438 2019-08-18 16:49:51 2019-08-18 16:50:11 20 0
Agent Script - Outbound Sales Gallery User Gallery67-15661796001730 2019-08-18 18:53:20 2019-08-18 18:54:01 41 Jim President/CEO 08/17/2019 0
Zingtree Tour Zingtree+Hosted ce79a8d68840401f90bc942d939bca40 2019-08-18 20:28:35 2019-08-18 20:28:50 15 0
Call Script with Objections Gallery User Gallery140-15661902222850 2019-08-18 21:50:23 2019-08-18 21:50:49 26 0
Call Script with Objections Gallery User Gallery140-15661940263989 2019-08-18 22:53:47 2019-08-18 22:57:56 249 0
Medical Scheduling Demo Gallery User Gallery104-1566194308211 2019-08-18 22:58:29 2019-08-18 22:58:55 26 0
Document Node PDF + Email Demo Gallery User Gallery135-15661946592878 2019-08-18 23:04:19 2019-08-18 23:04:50 31 Orange 10 mcsn.nt@gmail.com https://uploads.zingtree.com/pdf/Results!-Gallery135-15661946592878-1566194689.pdf 0
Zendesk Chat Demo Gallery User Gallery58-15661947198664 2019-08-18 23:05:21 2019-08-18 23:06:10 49 Nik 0
Training Simulation Template Gallery User Gallery38-15661972156986 2019-08-18 23:46:56 2019-08-18 23:46:59 3 0
Lower Back Pain Diagnosis Gallery User Gallery99-1566197237246 2019-08-18 23:47:19 2019-08-18 23:48:06 47 0
Pneumococcal Vaccine Decision Tree Gallery User Gallery18-15661973083718 2019-08-18 23:48:29 2019-08-18 23:48:32 3 0
Training Simulation Template Gallery User Gallery38-15661976048346 2019-08-18 23:53:25 2019-08-18 23:53:42 17 0
Webhook Zip Code Demo (with Logic Node) Gallery User Gallery66-1566199048411 2019-08-19 00:17:28 2019-08-19 00:17:34 6 0 96161
Garage Door Opener Troubleshooter Gallery User Gallery124-15662022014545 2019-08-19 01:10:01 2019-08-19 01:10:24 23 0
AB Test Demo Gallery User Gallery62-15662039399042 2019-08-19 01:39:00 2019-08-19 01:39:13 13 0
Legal Demo - Underage Drinking Laws in the USA Gallery User Gallery142-15662047681637 2019-08-19 01:52:49 2019-08-19 01:53:35 46 0
Diabetes Risk Test Gallery User Gallery42-15662098419019 2019-08-19 03:17:23 2019-08-19 03:30:46 803 0
Zingtree Tour Zingtree+Hosted 6af5bee6ef484c4ba742e82b1f191152 2019-08-19 03:38:02 2019-08-19 03:38:11 9 0
Zingtree Tour Zingtree+Hosted 35122b2738c74aa8891d4265c0d258c2 2019-08-19 03:38:17 2019-08-19 03:38:56 39 0
Call Script with Objections Gallery User Gallery140-15662155648594 2019-08-19 04:52:45 2019-08-19 04:53:16 31 0
Webhook Zip Code Demo (with Logic Node) Gallery User Gallery66-15662155854310 2019-08-19 04:53:07 2019-08-19 04:54:09 62 San Anselmo 0 California CA 94960
Zingtree Tour Zingtree+Hosted ae33c5326e194013ab2ad2ed65cc4b31 2019-08-19 04:49:35 2019-08-19 04:57:12 457 0
Astrology Site - End-user Troubleshooting Gallery User Gallery73-15662165185754 2019-08-19 05:08:40 2019-08-19 05:09:17 37 0 Chrome en Bangalore India 203.145.180.54 Karnataka +05:30 %2B05%3A30 560018
TV Power Troubleshooter Zingtree+Hosted 27a098edf8a14e048015156776da9f32 2019-08-19 05:18:39 2019-08-19 05:20:08 89 0
Call Script with Objections Gallery User Gallery140-15662178966329 2019-08-19 05:31:37 2019-08-19 05:31:52 15 0
Astrology Site - End-user Troubleshooting Gallery User Gallery73-15662183541550 2019-08-19 05:39:16 2019-08-19 05:39:54 38 0 Chrome en Salzburg Austria 195.70.107.97 Salzburg +02:00 %2B02%3A00 5111
Freshdesk - Create Ticket Demo Gallery User Gallery136-15662185537821 2019-08-19 05:42:34 2019-08-19 05:42:56 22 0
Agent Script - Outbound Sales Gallery User Gallery67-15662197354498 2019-08-19 06:02:16 2019-08-19 06:02:41 25 Test President/CEO 0
Diabetes Risk Test Zingtree+Hosted e1a67b0d182c40a49bcbd5a597b8455d 2019-08-19 06:13:47 2019-08-19 06:14:41 54 1
Basic Support Demo Zingtree+Hosted c5623af0b81f4afbad361ad6b5765ada 2019-08-19 06:15:34 2019-08-19 06:15:50 16 0
Picking the Perfect Pair: How to Find the Right Glasses Zingtree+Hosted da265781979043099e5bada3e3ab8424 2019-08-19 06:18:17 2019-08-19 06:18:52 35 Safari en Glasgow United Kingdom 87.117.94.142 Scotland +01:00 %2B01%3A00 G2 3DU
TV Power Troubleshooter Zingtree+Hosted c2f1377cd35646c8a70a69b4a49ffa6f 2019-08-19 06:18:44 2019-08-19 06:19:05 21 0
Diabetes Risk Test Gallery User Gallery42-15662212895155 2019-08-19 06:28:10 2019-08-19 06:28:27 17 4
Pneumococcal Vaccine Decision Tree Gallery User Gallery18-15662232607246 2019-08-19 07:01:01 2019-08-19 07:01:17 16 0
Astrology Site - End-user Troubleshooting Gallery User Gallery73-15662238229361 2019-08-19 07:10:23 2019-08-19 07:10:28 5 0 Chrome en Middletown United States 12.132.5.53 New Jersey -04:00 -04%3A00 07748
Basic Support Demo Gallery User Gallery88-15662249282981 2019-08-19 07:28:50 2019-08-19 07:29:03 13 0
Diabetes Risk Test Zingtree+Hosted 680e1c6795e4463298b055fd34af8a05 2019-08-19 07:33:30 2019-08-19 07:34:40 70 4
HR Questionnaire Gallery User Gallery47-15662253463780 2019-08-19 07:35:48 2019-08-19 07:37:01 73 40
Pneumococcal Vaccine Decision Tree Gallery User Gallery18-15662284065801 2019-08-19 08:26:46 2019-08-19 08:29:29 163 0
Zingtree Tour Zingtree+Hosted ca6cf01f98244620a26c2b43316acfd4 2019-08-19 08:41:39 2019-08-19 08:42:11 32 0
Agent Script - Outbound Sales Gallery User Gallery67-15662310977722 2019-08-19 09:11:40 2019-08-19 09:12:43 63 fsa Front Office 0
Basic Support Demo Zingtree+Hosted 16b52544555e41b6ba55ccf831f7c61a 2019-08-19 09:04:35 2019-08-19 09:18:40 845 0
Image Buttons - Clothing Demo Gallery User Gallery76-15662323648775 2019-08-19 09:32:46 2019-08-19 09:35:04 138 0
How to Deal With Angry Customers Gallery User Gallery120-15662338933952 2019-08-19 09:58:14 2019-08-19 10:01:28 194 0 Chrome en Palo Alto United States 192.161.159.18 California -07:00 -07%3A00 94301
Scoring Demo Gallery User Gallery68-15662357388281 2019-08-19 10:28:58 2019-08-19 10:29:49 51 0 0 0 0
Call Script with Objections Gallery User Gallery140-15662369724120 2019-08-19 10:49:33 2019-08-19 10:49:41 8 0
Pneumococcal Vaccine Decision Tree Gallery User Gallery18-15662416747638 2019-08-19 12:07:55 2019-08-19 12:21:08 793 0
Skin Acne Assessment Gallery User 19c5d3fce9ff4672bde5be025ae40dda 2019-08-19 13:17:54 2019-08-19 13:18:12 18 0 0
Zingtree Tour Zingtree+Hosted 03fd9bce578e41c9945aa7239348fb99 2019-08-19 13:20:37 2019-08-19 13:21:01 24 0
Astrology Site - End-user Troubleshooting Gallery User Gallery73-15662461121898 2019-08-19 13:21:53 2019-08-19 13:22:18 25 0 Chrome en San Mateo United States 50.237.127.254 California -07:00 -07%3A00 94401
Agent Script - Outbound Sales Gallery User Gallery67-15662461209028 2019-08-19 13:22:01 2019-08-19 13:23:04 63 Test President/CEO 08/22/2019 0
Scoring Demo Gallery User Gallery68-15662476561120 2019-08-19 13:47:36 2019-08-19 13:48:03 27 0 0 0
Narcissist Test V3 Gallery User Gallery84-15662477672194 2019-08-19 13:49:27 2019-08-19 13:50:19 52 10 8 10 0
Survey Selector Gallery User Gallery127-15662479753015 2019-08-19 13:52:56 2019-08-19 13:53:46 50 2 Female 2 0
Picking the Perfect Pair: How to Find the Right Glasses Gallery User Gallery96-15662489384062 2019-08-19 14:08:59 2019-08-19 14:09:02 3 Chrome en Piscataway United States 69.59.255.4 New Jersey -04:00 -04%3A00 08854
Document Node PDF + Email Demo Gallery User Gallery135-15662512231550 2019-08-19 14:47:03 2019-08-19 14:47:27 24 Green 10 https://uploads.zingtree.com/pdf/Results!-Gallery135-15662512231550-1566251247.pdf 0
Document Node PDF + Email Demo Gallery User fc1c9700a80e4696841140d985366ab9 2019-08-19 14:48:37 2019-08-19 14:48:47 10 Purple 10 https://uploads.zingtree.com/pdf/Results!-fc1c9700a80e4696841140d985366ab9-1566251327.pdf 0
Agent Script - Set Appointment Gallery User Gallery53-15662586372273 2019-08-19 16:50:38 2019-08-19 16:50:44 6 0
AB Test Demo Gallery User Gallery62-15662586561838 2019-08-19 16:50:57 2019-08-19 16:51:07 10 0
Freshdesk - Create Ticket Demo Gallery User Gallery136-1566258681158 2019-08-19 16:51:22 2019-08-19 16:51:27 5 0
Zingtree Tour Zingtree+Hosted a39432872a0740e59ac29347c3bb2731 2019-08-19 17:22:23 2019-08-19 17:24:48 145 Apples 0
Picking the Perfect Pair: How to Find the Right Glasses Gallery User Gallery96-15662607795435 2019-08-19 17:26:20 2019-08-19 17:26:45 25 0 Chrome en Sydney Australia 203.87.6.106 New South Wales +10:00 %2B10%3A00 2000
What in the World Do You Bring to a Holiday Party? Gallery User Gallery61-15662609876367 2019-08-19 17:29:49 2019-08-19 17:31:08 79 0
Basic Support Demo Gallery User Gallery88-15662611117798 2019-08-19 17:31:52 2019-08-19 17:32:03 11 0
Personality Test Demo Gallery User Gallery40-15662616761302 2019-08-19 17:41:16 2019-08-19 17:41:42 26 51
Customer Satisfaction Survey - Example Gallery User Gallery143-15662629236669 2019-08-19 18:02:05 2019-08-19 18:02:42 37 8 0 0
Intercom.io Demo Gallery User Gallery59-15662632962342 2019-08-19 18:08:17 2019-08-19 18:08:32 15 0
Zendesk Chat Demo Gallery User Gallery58-15662633168855 2019-08-19 18:08:37 2019-08-19 18:08:39 2 0
Agent Script - Set Appointment Gallery User Gallery53-15662726499732 2019-08-19 20:44:10 2019-08-19 20:44:15 5 0
Diabetes Risk Test Gallery User Gallery42-15662742986522 2019-08-19 21:11:39 2019-08-19 21:45:25 2026 3
TV Power Troubleshooter Zingtree+Hosted e65d804f81cf47bfbbf8afd865eab557 2019-08-19 21:52:32 2019-08-19 21:52:43 11 0
Astrology Site - End-user Troubleshooting Gallery User Gallery73-15662832101869 2019-08-19 23:40:13 2019-08-19 23:40:43 30 0 Chrome en Surat India 203.109.87.218 Gujarat +05:30 %2B05%3A30 395005
Astrology Site - End-user Troubleshooting Gallery User Gallery73-15662878024080 2019-08-20 00:56:43 2019-08-20 00:57:23 40 Chrome en Perth Australia 130.95.223.201 Western Australia +08:00 %2B08%3A00 6003
Training Simulation Template Gallery User Gallery38-15662878625828 2019-08-20 00:57:42 2019-08-20 00:57:58 16 0
Bicycle Types: Which Bike Is Right for You? Gallery User Gallery98-15662879014659 2019-08-20 00:58:22 2019-08-20 00:58:43 21 0
Astrology Site - End-user Troubleshooting Gallery User Gallery73-15662908166420 2019-08-20 01:46:56 2019-08-20 01:47:06 10 0 Chrome en Paris France 176.158.143.112 Ile-de-France +02:00 %2B02%3A00 75000
Astrology Site - End-user Troubleshooting Gallery User Gallery73-15662924435401 2019-08-20 02:14:04 2019-08-20 02:14:18 14 0 Chrome en Groningen Netherlands 217.100.222.202 Groningen +02:00 %2B02%3A00 9740
Zingtree Tour Zingtree+Hosted bc6af090105c4e92b7c3a000f9605d5e 2019-08-20 02:59:48 2019-08-20 03:05:38 350 0
How to Deal With Angry Customers Gallery User Gallery120-15662958276228 2019-08-20 03:10:34 2019-08-20 03:10:56 22 0 Chrome en Mumbai India 116.50.59.180 Maharashtra +05:30 %2B05%3A30 400099
Agent Script - Set Appointment Gallery User Gallery53-15662973339879 2019-08-20 03:35:34 2019-08-20 03:35:49 15 0
HR Questionnaire Gallery User Gallery47-15662995394756 2019-08-20 04:12:19 2019-08-20 04:12:31 12 32
Basic Support Demo Gallery User Gallery88-15662998748841 2019-08-20 04:17:56 2019-08-20 04:18:06 10 0
AB Test Demo Gallery User Gallery62-15663023387302 2019-08-20 04:58:59 2019-08-20 04:59:34 35 0
Astrology Site - End-user Troubleshooting Gallery User Gallery73-1566302800615 2019-08-20 05:06:41 2019-08-20 05:07:15 34 0 Edge en London United Kingdom 167.98.2.0 England +01:00 %2B01%3A00 E1 8DQ
Freshdesk - Create Ticket Demo Gallery User Gallery136-1566302894307 2019-08-20 05:08:15 2019-08-20 05:08:33 18 0
Technical Troubleshooter Example Gallery User Gallery23-15663029547077 2019-08-20 05:09:15 2019-08-20 05:10:37 82 0
Picking the Perfect Pair: How to Find the Right Glasses Gallery User Gallery96-15663030966068 2019-08-20 05:11:37 2019-08-20 05:11:47 10 0 Chrome en Santiago Chile 200.14.251.242 Region Metropolitana de Santiago -03:00 -03%3A00 8320000
Zingtree Tour Zingtree+Hosted a3c64faaddcc495b94e0a362d1117cb9 2019-08-20 05:18:44 2019-08-20 05:19:12 28 0
Astrology Site - End-user Troubleshooting Gallery User Gallery73-15663036597916 2019-08-20 05:21:00 2019-08-20 05:21:04 4 0 Chrome en London United Kingdom 83.244.190.100 England +01:00 %2B01%3A00 E1 8DQ
Pneumococcal Vaccine Decision Tree Gallery User Gallery18-15663044638024 2019-08-20 05:34:24 2019-08-20 05:34:31 7 0
Zingtree Tour Zingtree+Hosted 3362f16f54ef43aea05dee382ad7893a 2019-08-20 05:41:19 2019-08-20 05:41:29 10 0
How to Deal With Angry Customers Gallery User Gallery120-15663048865355 2019-08-20 05:41:26 2019-08-20 05:41:35 9 0 Chrome en Nashville United States 174.50.220.17 Tennessee -05:00 -05%3A00 37201
What Computing Devices do I Need? Gallery User Gallery83-15663048835648 2019-08-20 05:41:23 2019-08-20 05:41:46 23 1 Yes 0
Picking the Perfect Pair: How to Find the Right Glasses Gallery User Gallery96-15663047683061 2019-08-20 05:39:29 2019-08-20 05:47:34 485 Chrome en Manchester United Kingdom 46.208.209.158 England +01:00 %2B01%3A00 M1 1AF
Zingtree Tour Zingtree+Hosted 08cdb2129d7f4081bc617ef6c449f371 2019-08-20 05:49:15 2019-08-20 05:49:39 24 0
Scoring Demo Gallery User Gallery68-15663056136192 2019-08-20 05:53:34 2019-08-20 05:53:58 24 1 1 0 1 0 1 1 1
Agent Script - Outbound Sales Gallery User Gallery67-15663061222068 2019-08-20 06:02:02 2019-08-20 06:02:40 38 sdfdsf Front Office 08/23/2019 0
Bicycle Types: Which Bike Is Right for You? Gallery User Gallery98-15663063752558 2019-08-20 06:06:16 2019-08-20 06:06:26 10 0
Agent Script - Outbound Sales Gallery User Gallery67-15663066047787 2019-08-20 06:10:06 2019-08-20 06:11:18 72 Robert Johnson President/CEO 0
How to Deal With Angry Customers Gallery User Gallery120-15663067799786 2019-08-20 06:13:01 2019-08-20 06:14:42 101 0 Safari en Makati Philippines 112.201.61.3 National Capital Region +08:00 %2B08%3A00 1214
Pet Rock Demo Zingtree+Hosted 17f79b327039468da10267212eb19c8c 2019-08-20 06:16:08 2019-08-20 06:16:27 19 0
Basic Support Demo Zingtree+Hosted 48557845f5f445dbbe406dd741448fd4 2019-08-20 06:18:16 2019-08-20 06:19:11 55 0
Pneumococcal Vaccine Decision Tree Gallery User Gallery18-15663071769094 2019-08-20 06:19:37 2019-08-20 06:19:45 8 0
Scheduling Demo Gallery User Gallery117-15663072637364 2019-08-20 06:21:04 2019-08-20 06:22:11 67 External Leaf dsalas14@gmail.com Daniel Salas 0
Simple Sales Funnel Demo Gallery User Gallery50-1566307343233 2019-08-20 06:22:23 2019-08-20 06:22:32 9 0
How to Deal With Angry Customers Gallery User Gallery120-15663071578523 2019-08-20 06:19:17 2019-08-20 06:25:13 356 Safari en Farmers Branch United States 192.154.176.195 Texas -05:00 -05%3A00 75234
Call Script with Objections Gallery User Gallery140-15663082813200 2019-08-20 06:38:03 2019-08-20 06:38:28 25 0
Pneumococcal Vaccine Decision Tree Gallery User Gallery18-15663086624382 2019-08-20 06:44:23 2019-08-20 06:47:43 200 0
How to Deal With Angry Customers Gallery User Gallery120-15663089482252 2019-08-20 06:49:09 2019-08-20 06:49:16 7 0 Chrome en Farmers Branch United States 192.154.176.195 Texas -05:00 -05%3A00 75234
Basic Support Demo Gallery User Gallery88-15663096258923 2019-08-20 07:00:25 2019-08-20 07:00:31 6 0
Webhook City/State Lookup Demo Gallery User Gallery87-15663100437480 2019-08-20 07:07:25 2019-08-20 07:08:46 81 Aguila AguilaAjoAlpineAmadoAnthemApache JunctionArivacaArizona CityArlingtonAsh ForkAvondaleBagdadBeaver DamBellemontBensonBisbeeBlack Canyon CityBlueBouseBowieBuckeyeBullhead CityBylasCameronCamp VerdeCarefreeCasa GrandeCasas AdobesCashionCave CreekCentral Heights-Midland CityChambersChandlerChandler HeightsChinleChino ValleyCibecueClarkdaleClaypoolCliftonCochiseColorado CityConchoCongressCoolidgeCornvilleCortaroCottonwoodDatelandDennehotsoDesert HillsDeweyDilkonDolan SpringsDouglasDragoonDuncanEagarEhrenbergEl MirageElginEloyFlagstaffFlorenceForest LakesFort ApacheFort DefianceFort HuachucaFort McDowellFort ThomasFountain HillsFredoniaGanadoGila BendGilbertGlendaleGlendale Luke Air Force BaseGlobeGold CanyonGolden ValleyGoodyearGrand CanyonGrand Canyon VillageGreen ValleyGreerGuadalupeHappy JackHaydenHeberHeber-OvergaardHerefordHigleyHolbrookHotevillaHuachuca CityJoseph CityKayentaKearnyKingmanKirklandKykotsmovi VillageLake Havasu CityLake of the WoodsLakesideLaveenLeCheeLeuppLindenLitchfield ParkLittlefieldMammothMaranaMarble CanyonMaricopaMayerMeadviewMesaMescalMiamiMohave ValleyMorenciMorristownMount LemmonNew RiverNogalesNorth RimOracleOro ValleyOvergaardPagePalo VerdeParadise ValleyParkerParksPatagoniaPauldenPaysonPeach SpringsPearcePeoriaPeridotPetrified Forest National ParkPhoenixPimaPinePinedalePinetopPinonPostonPrescottPrescott ValleyQuartzsiteQueen CreekRillitoRimrockRio RicoRollRooseveltSaffordSahuaritaSaint DavidSaint JohnsSaint MichaelsSalomeSan CarlosSan LuisSan ManuelSan SimonSan Tan ValleySandersSasabeScottsdaleSecond MesaSedonaSeligmanSellsShontoShow LowSierra VistaSnowflakeSolomonSomertonSonoitaSouth TucsonSpring ValleySpringervilleStanfieldStar ValleySun CitySun City WestSun LakesSupaiSuperiorSurpriseSwift Trail JunctionTempeTempe JunctionThatcherTollesonTombstoneTonaleaTonopahTonto BasinTuba CityTubacTucsonTusayanVailValencia WestVernonWaddellWelltonWendenWhite Mountain LakeWhiteriverWickenburgWikieupWillcoxWilliamsWillow BeachWindow RockWinkelmanWinslowWittmannYoungYoungtownYuccaYuma 0 Arizona
Basic Support Demo Gallery User Gallery88-15663105194313 2019-08-20 07:15:20 2019-08-20 07:15:29 9 0
Master Tree Demo Gallery User Gallery116-15663102251942 2019-08-20 07:10:26 2019-08-20 07:21:48 682 0
TV Power Troubleshooter Zingtree+Hosted 3cd168e1650b45a29bfafe6f6736f12c 2019-08-20 07:23:03 2019-08-20 07:23:09 6 0
Simple Sales Funnel Demo Gallery User Gallery50-15663120181555 2019-08-20 07:40:18 2019-08-20 07:40:23 5 0
Simple Sales Funnel Demo Gallery User Gallery50-15663120374964 2019-08-20 07:40:37 2019-08-20 07:40:44 7 0
Basic Support Demo Gallery User Gallery88-15663120681581 2019-08-20 07:41:09 2019-08-20 07:41:25 16 0
Picking the Perfect Pair: How to Find the Right Glasses Gallery User Gallery96-15663125549755 2019-08-20 07:49:15 2019-08-20 07:51:03 108 IE en Almere Stad Netherlands 137.224.252.11 Flevoland +02:00 %2B02%3A00 1329
Agent Script - Outbound Sales Gallery User Gallery67-15663136326066 2019-08-20 08:07:12 2019-08-20 08:08:48 96 Steve President/CEO 0
How to Deal With Angry Customers Gallery User Gallery120-15663137808737 2019-08-20 08:09:41 2019-08-20 08:10:16 35 0 Safari en Farmers Branch United States 192.154.176.195 Texas -05:00 -05%3A00 75234
Picking the Perfect Pair: How to Find the Right Glasses Gallery User Gallery96-15663138914491 2019-08-20 08:11:32 2019-08-20 08:11:35 3 0 Chrome en Manchester United Kingdom 46.208.209.158 England +01:00 %2B01%3A00 M1 1AF
Picking the Perfect Pair: How to Find the Right Glasses Gallery User Gallery96-15663139585704 2019-08-20 08:12:39 2019-08-20 08:12:43 4 Chrome en Manchester United Kingdom 46.208.209.158 England +01:00 %2B01%3A00 M1 1AF
Zingtree Tour Zingtree+Hosted ede4c606cfbf4688900d9e78123801c0 2019-08-20 08:10:37 2019-08-20 08:12:44 127 0
Picking the Perfect Pair: How to Find the Right Glasses Gallery User Gallery96-15663139817903 2019-08-20 08:13:02 2019-08-20 08:13:11 9 Chrome en Manchester United Kingdom 46.208.209.158 England +01:00 %2B01%3A00 M1 1AF
TV Power Troubleshooter Zingtree+Hosted 6f4e0df19b8d4790946b2e5b27b6a16b 2019-08-20 08:14:35 2019-08-20 08:14:44 9 0
Diabetes Risk Test Gallery User Gallery42-15663146176214 2019-08-20 08:23:38 2019-08-20 08:24:42 64 2
Basic Support Demo Gallery User Gallery88-15663147045529 2019-08-20 08:25:05 2019-08-20 08:25:23 18 0
Basic Support Demo Zingtree+Hosted 06cc62bc36ea4096813bb5077031d596 2019-08-20 08:25:15 2019-08-20 08:25:29 14 0
Pet Rock Demo Zingtree Hosted 925e43c71a6b4f0cb54fdea652b6ab37 2019-08-20 08:25:38 2019-08-20 08:25:48 10 0
Intercom.io Demo Gallery User Gallery59-15663148383406 2019-08-20 08:27:18 2019-08-20 08:28:05 47 0
Technical Troubleshooter Example Gallery User Gallery23-1566315366827 2019-08-20 08:36:07 2019-08-20 08:36:24 17 0
Technical Troubleshooter Example Gallery User Gallery23-15663159576516 2019-08-20 08:46:00 2019-08-20 08:46:26 26 0
How to Deal With Angry Customers Gallery User Gallery120-15663164818099 2019-08-20 08:54:44 2019-08-20 08:55:25 41 0 IE en Edinburgh United Kingdom 89.250.46.8 Scotland +01:00 %2B01%3A00 EH2 1DG
Agent Script - Outbound Sales Gallery User Gallery67-15663172411664 2019-08-20 09:07:21 2019-08-20 09:07:34 13 wer Front Office 0
Basic Support Demo Gallery User Gallery88-15663172726672 2019-08-20 09:07:53 2019-08-20 09:07:57 4 0
Basic Support Demo #2 Gallery User Gallery92-15663172731974 2019-08-20 09:07:53 2019-08-20 09:08:00 7 0
Freshdesk - Create Ticket Demo Gallery User Gallery136-15663172741546 2019-08-20 09:07:54 2019-08-20 09:08:02 8 0
Technical Troubleshooter Example Gallery User Gallery23-15663172924047 2019-08-20 09:08:13 2019-08-20 09:08:15 2 0
Agent Script - Set Appointment Gallery User Gallery53-15663173111078 2019-08-20 09:08:32 2019-08-20 09:09:03 31 0
Diabetes Risk Test Gallery User Gallery42-15663173287254 2019-08-20 09:08:49 2019-08-20 09:09:13 24 1
HR Questionnaire Gallery User Gallery47-15663173288910 2019-08-20 09:08:49 2019-08-20 09:09:17 28 24
Diabetes Risk Test Gallery User Gallery42-15663173721537 2019-08-20 09:09:32 2019-08-20 09:09:43 11 5
Freshdesk - Create Ticket Demo Zingtree Hosted 6913876fc3a049f29080a6f9a3563197 2019-08-20 09:18:32 2019-08-20 09:19:26 54 Philosophy I'm looking for some guidance... bill@dettering.com Bill Demo Test 0
Call Script with Objections Gallery User Gallery140-15663212749204 2019-08-20 10:14:35 2019-08-20 10:14:47 12 0
Lower Back Pain Diagnosis Gallery User Gallery99-15663203809812 2019-08-20 09:59:41 2019-08-20 10:25:28 1547 0
Simple Sales Funnel Demo Gallery User Gallery50-15663228203433 2019-08-20 10:40:21 2019-08-20 10:40:25 4 0
Simple Sales Funnel Demo Gallery User Gallery50-156632284577 2019-08-20 10:40:46 2019-08-20 10:40:52 6 0
Basic Support Demo Gallery User Gallery88-15663236476878 2019-08-20 10:54:08 2019-08-20 10:54:14 6 0
Agent Script - Set Appointment Gallery User Gallery53-15663244365043 2019-08-20 11:07:18 2019-08-20 11:07:30 12 0
Basic Support Demo Gallery User Gallery88-15663244566931 2019-08-20 11:07:38 2019-08-20 11:07:42 4 0
Diabetes Risk Test Gallery User Gallery42-15663244922271 2019-08-20 11:08:14 2019-08-20 11:09:46 92 5
Life Insurance Sales (with Form Fields & Verification) sheryl.agent@mycompany.com AP840f084312da652f804dc382d3a315 2019-08-20 11:14:42 2019-08-20 11:15:11 29 sheryl.agent@mycompany.com Sheryl Sheryl Agent frrodriguez@zendesk.com Fred Zingtree Gallery 388383 0
Zingtree Tour Zingtree+Hosted c9a5c932b2874c99b0f993fa82682a0a 2019-08-20 11:22:06 2019-08-20 11:22:15 9 0
Document Node PDF + Email Demo Gallery User Gallery135-15663256989574 2019-08-20 11:28:23 2019-08-20 11:28:48 25 Red 9 valerylobano1@gmail.com https://uploads.zingtree.com/pdf/Results!-Gallery135-15663256989574-1566325727.pdf 0
Narcissist Test V3 Gallery User Gallery84-15663260036056 2019-08-20 11:33:25 2019-08-20 11:33:40 15 11 10 7 0
Agent Script - Outbound Sales Gallery User Gallery67-1566328124872 2019-08-20 12:08:44 2019-08-20 12:09:10 26 AT&T Decision Maker 08/09/2019 0
Sample Zendesk Integration Gallery User Gallery17-15663291402484 2019-08-20 12:25:41 2019-08-20 12:25:50 9 0
Skin Acne Assessment Gallery User Gallery144-15663294636830 2019-08-20 12:31:05 2019-08-20 12:31:20 15 0 0 0 1 2 0 7
Basic Support Demo Gallery User Gallery88-1566329494435 2019-08-20 12:31:34 2019-08-20 12:31:55 21 0
Legal Demo - Underage Drinking Laws in the USA Gallery User Gallery142-15663296049165 2019-08-20 12:33:25 2019-08-20 12:33:53 28 0
How to Deal With Angry Customers Gallery User Gallery120-15663299072769 2019-08-20 12:38:28 2019-08-20 12:40:40 132 IE en Hays United States 69.77.16.238 Kansas -05:00 -05%3A00 67601
Agent Script - Outbound Sales Gallery User Gallery67-15663301928573 2019-08-20 12:43:13 2019-08-20 12:43:41 28 raymond Front Office 0
Agent Script - Outbound Sales Gallery User Gallery67-15663308062360 2019-08-20 12:53:27 2019-08-20 12:53:50 23 bhiuaefoijsdffs Front Office 0
Zingtree Tour Zingtree+Hosted cb4578d9787a46059b671dcdd40c2eef 2019-08-20 13:16:34 2019-08-20 13:16:53 19 0
What Computing Devices do I Need? Gallery User Gallery83-15663334404642 2019-08-20 13:37:21 2019-08-20 13:37:32 11 0 Yes 0
Pneumococcal Vaccine Decision Tree Zingtree+Hosted 78d5f8078a6b474eb55cf14128d6ec6f 2019-08-20 13:41:29 2019-08-20 13:42:04 35 0
Agent Script - Set Appointment Zingtree+Hosted e2b770f0408e45fd9569630b1293d8a1 2019-08-20 13:45:42 2019-08-20 13:47:07 85 0
Technical Product Support Gallery User Gallery24-15663345886448 2019-08-20 13:56:29 2019-08-20 13:56:55 26 0
Astrology Site - End-user Troubleshooting bill@zingtree.com FD14-38 2019-08-20 09:19:46 2019-08-20 14:09:55 17409 null Philosophy https://d3h0owdjgzys62.cloudfront.net/app-assets/2fafb10b059d684391f2/app/modal.html?appId=359 bill@dettering.com Bill 0 Chrome en San Mateo United States 12.30.201.114 Freshworks Inc freshworks.com California -07:00 -07%3A00 94403
Lower Back Pain Diagnosis Gallery User Gallery99-15663362155323 2019-08-20 14:23:36 2019-08-20 14:24:09 33 0
Freshdesk - Create Ticket Demo Gallery User Gallery136-15663348279797 2019-08-20 14:00:28 2019-08-20 14:29:50 1762 0
Lower Back Pain Diagnosis Gallery User Gallery99-15663387569510 2019-08-20 15:05:57 2019-08-20 15:06:09 12 0
Astrology Site - End-user Troubleshooting bill@zingtree.com FD14-39 2019-08-20 14:16:23 2019-08-20 15:07:54 3091 null Philosophy https://d3h0owdjgzys62.cloudfront.net/app-assets/2fafb10b059d684391f2/app/modal.html?appId=359 bill@dett.com Bill 0 Chrome en San Mateo United States 12.30.201.114 Freshworks Inc freshworks.com California -07:00 -07%3A00 94403
Freshdesk - Create Ticket Demo Gallery User Gallery136-15663369351885 2019-08-20 14:35:36 2019-08-20 15:29:11 3215 0
Astrology Site - End-user Troubleshooting bill@zingtree.com FD14-40 2019-08-20 15:23:20 2019-08-20 15:54:37 1877 null Philosophy https://d3h0owdjgzys62.cloudfront.net/app-assets/2fafb10b059d684391f2/app/modal.html?appId=359 bill@dettering.com Bill 0 Chrome en San Mateo United States 12.30.201.114 Freshworks Inc freshworks.com California -07:00 -07%3A00 94403
Zingtree Tour Zingtree+Hosted 31c8724bd6c547938c817a9ca5de66e8 2019-08-20 16:50:28 2019-08-20 16:51:27 59 0
HR Questionnaire Gallery User Gallery47-1566346973447 2019-08-20 17:22:54 2019-08-20 17:22:58 4 5
Zingtree Tour Zingtree+Hosted bd2eecba9fda41bdb3f5fc19e090f890 2019-08-20 20:17:46 2019-08-20 20:17:49 3 0
Document Node PDF + Email Demo Gallery User Gallery135-15663589479682 2019-08-20 20:42:28 2019-08-20 20:42:36 8 Orange 10 https://uploads.zingtree.com/pdf/Results!-Gallery135-15663589479682-1566358956.pdf 0
Narcissist Test V3 Gallery User Gallery84-15663589689794 2019-08-20 20:42:49 2019-08-20 20:43:14 25 0
Astrology Site - End-user Troubleshooting Gallery User Gallery73-15663600989628 2019-08-20 21:01:39 2019-08-20 21:01:48 9 0 Chrome en Jakarta Indonesia 103.119.144.22 Jakarta Raya +07:00 %2B07%3A00 12850
TV Power Troubleshooter Zingtree+Hosted f8f5590611d94e44a4c77aa85452a4f0 2019-08-20 22:36:55 2019-08-20 22:37:37 42 0
Pneumococcal Vaccine Decision Tree Gallery User 934aa9523890468890e429710c924a1f 2019-08-20 22:43:58 2019-08-20 22:52:15 497 0
Scoring Demo Gallery User Gallery68-15663684937430 2019-08-20 23:21:34 2019-08-20 23:21:51 17 0 1015 1 0 0 0 1
Simple Sales Funnel Demo Gallery User Gallery50-15663686598307 2019-08-20 23:24:20 2019-08-20 23:24:32 12 0
Pneumococcal Vaccine Decision Tree Gallery User 4b8ac37e08734c88a4f109f3212137dd 2019-08-20 23:33:50 2019-08-20 23:34:24 34 0
Advanced Logic Node Demo Gallery User Gallery137-15663709618046 2019-08-21 00:02:44 2019-08-21 00:03:02 18 23 0 sassed
Astrology Site - End-user Troubleshooting Gallery User Gallery73-15663736742029 2019-08-21 00:47:55 2019-08-21 00:48:04 9 0 Chrome en Manchester United Kingdom 46.208.209.158 England +01:00 %2B01%3A00 M1 1AF
Agent Script - Outbound Sales Gallery User Gallery67-15663746792606 2019-08-21 01:04:39 2019-08-21 01:05:26 47 test Decision Maker 0
Picking the Perfect Pair: How to Find the Right Glasses Gallery User Gallery96-15663749499084 2019-08-21 01:09:10 2019-08-21 01:10:39 89 Safari en Johannesburg South Africa 169.239.80.200 Gauteng +02:00 %2B02%3A00 2041
Astrology Site - End-user Troubleshooting Gallery User Gallery73-15663826758670 2019-08-21 03:17:57 2019-08-21 03:19:02 65 0 Chrome en Cleveleys United Kingdom 94.1.125.223 England +01:00 %2B01%3A00 FY5 2AA
Timestamp Webhook Demo Zingtree+Hosted 0489e3de19b44636a86074f6b488aab2 2019-08-21 03:48:35 2019-08-21 03:48:53 18 Y-m-d 0 2019-08-21 03:48:35 Europe/London
Session Summary Demo ravi.hejmadi@clearchannelint.com 7d828d188a9f43dba2bc470afcb53924 2019-08-21 04:17:42 2019-08-21 04:17:58 16 Ravi Hejmadi 0
Pneumococcal Vaccine Decision Tree Gallery User Gallery18-15663864514374 2019-08-21 04:20:52 2019-08-21 04:21:09 17 0
Pneumococcal Vaccine Decision Tree Gallery User Gallery18-15663876966407 2019-08-21 04:41:36 2019-08-21 04:42:05 29 0
Technical Product Support Gallery User Gallery24-15663909191146 2019-08-21 05:35:20 2019-08-21 05:35:30 10 0
Garage Door Opener Troubleshooter Gallery User Gallery124-15663919923064 2019-08-21 05:53:13 2019-08-21 05:53:22 9 0
Pet Rock Demo Zingtree+Hosted da1ba8fdfbdf4911becaf274dd5bff77 2019-08-21 06:11:19 2019-08-21 06:11:49 30 0
Astrology Site - End-user Troubleshooting Gallery User Gallery73-15663950118634 2019-08-21 06:43:31 2019-08-21 06:43:51 20 Chrome en Bartley United Kingdom 82.33.248.194 England +01:00 %2B01%3A00 SO40 2LL
Picking the Perfect Pair: How to Find the Right Glasses Gallery User Gallery96-15663956898642 2019-08-21 06:54:51 2019-08-21 06:55:28 37 0 Chrome en Coventry United Kingdom 31.185.132.131 England +01:00 %2B01%3A00 CV1 1LP
Astrology Site - End-user Troubleshooting karthik.yermunja@atherenergy.com FD14-29676 2019-08-21 06:53:21 2019-08-21 06:55:31 130 https://d3h0owdjgzys62.cloudfront.net/app-assets/2fafb10b059d684391f2/app/modal.html?appId=359 Firefox en Bangalore India 106.51.73.107 Atria Convergence Technologies Pvt. Ltd. actcorp.in Karnataka +05:30 %2B05%3A30 560018
Agent Script - Set Appointment sheryl.agent@mycompany.com AP212e4a49245b693861d9e9c66a384a 2019-08-21 07:08:32 2019-08-21 07:08:45 13 sheryl.agent@mycompany.com Sheryl Sheryl Agent Zingtree Gallery
Agent Script - Set Appointment sheryl.agent@mycompany.com AP10ed0913ddd9f7be10de886a4d6cce 2019-08-21 07:08:47 2019-08-21 07:08:54 7 sheryl.agent@mycompany.com Sheryl Sheryl Agent Zingtree Gallery
Agent Script - Set Appointment sheryl.agent@mycompany.com AP648409864ae96feca53d57641bbfd4 2019-08-21 07:08:55 2019-08-21 07:09:03 8 sheryl.agent@mycompany.com Sheryl Sheryl Agent Zingtree Gallery 0
Sample Zendesk Integration Gallery User Gallery17-15663965826437 2019-08-21 07:09:42 2019-08-21 07:09:54 12 0
Training Simulation Template Gallery User Gallery38-1566396670364 2019-08-21 07:11:10 2019-08-21 07:11:26 16 0
How to Deal With Angry Customers Gallery User Gallery120-15663967197227 2019-08-21 07:12:00 2019-08-21 07:12:33 33 0 Chrome en Chicago United States 192.82.152.2 Illinois -05:00 -05%3A00 60601
Skin Acne Assessment Gallery User Gallery144-15663992157031 2019-08-21 07:53:36 2019-08-21 07:53:50 14 0 0 3 0
Astrology Site - Zendesk Bill Dettering 305899437-252 2019-07-15 15:01:39 2019-08-21 08:17:06 3172527 yes null null astrology Bill Dettering Bill zingtag,zingtag2 debbie@paradogcollars.com Debbie 0 Deb McDeb 252 (astrology),(checkout),(shared_from_zingtree_spoke),(zingtree)
Webhook City/State Lookup Demo Gallery User Gallery87-15664006737794 2019-08-21 08:17:54 2019-08-21 08:19:19 85 Clancy AbsarokeeAnacondaAshlandAugustaBabbBakerBearcreekBelgradeBig SandyBig SkyBig TimberBigforkBillingsBlack EagleBloomfieldBonnerBoulderBox ElderBozemanBradyBridgerBroadusBrocktonBrowningBrusettBusbyButteCameronCardwellCascadeCharloChinookChoteauCircleClancyClintonClyde ParkCoffee CreekColstripColumbia FallsColumbusCondonConnerConradCooke CityCorvallisCraneCrow AgencyCulbertsonCusterCut BankDarbyDaytonDe BorgiaDeckerDeer LodgeDellDillonDixonDrummondDuttonEkalakaEllistonEmigrantEnnisEssexEthridgeEurekaFairfieldFairviewFlaxvilleForsythFort BentonFortineFrazerFrenchtownFrombergGallatin GatewayGardinerGarryowenGeyserGlasgowGlendiveGrantsdaleGreat FallsHamiltonHardinHarlemHarlowtonHathawayHavreHaysHelenaHelmvilleHogelandHot SpringsHungry HorseHusonHyshamJolietJordanJudith GapKalispellKevinKilaKinseyLakesideLame DeerLaurelLavinaLewistownLibbyLincolnLivingstonLoloLomaMalmstrom Air Force BaseMaltaManhattanMarionMcAllisterMedicine LakeMelvilleMiles CityMissoulaMoccasinMontana CityMooreNashuaNoxonNyeOvandoPabloPhilipsburgPinesdalePlainsPlentywoodPlevnaPolebridgePolsonPoplarPrayRed LodgeRedstoneRicheyRobertsRollinsRonanRosebudRoundupRyegateSacoSaint IgnatiusSaint RegisSavageScobeySeeley LakeShelbyShepherdSidneySilver GateSomersStevensvilleSun RiverSunburstSuperiorTerryThompson FallsThree ForksTostonTownsendTrout CreekTroyValierVaughnVictorVolborgWest GlacierWest YellowstoneWestbyWhite Sulphur SpringsWhitefishWhitehallWibauxWillow CreekWilsallWinstonWisdomWolf CreekWolf PointWordenZortmanZurich 0 Montana
Life Insurance Sales (with Form Fields & Verification) Gallery User Gallery122-15664007964665 2019-08-21 08:19:58 2019-08-21 08:21:15 77 CA 24 7th Ave San Francisco bill@zingtree.com Bill 415-218-7618 0 94118-1205
Pneumococcal Vaccine Decision Tree Gallery User Gallery18-15663988461045 2019-08-21 07:47:27 2019-08-21 08:23:12 2145 0
Math Expression Demo Gallery User Gallery139-15664017961749 2019-08-21 08:36:37 2019-08-21 08:36:59 22 3 4 0
How to Deal With Angry Customers Gallery User Gallery120-15664025189524 2019-08-21 08:48:38 2019-08-21 08:49:19 41 0 Chrome en San Diego United States 208.87.237.201 California -07:00 -07%3A00 92121
Basic Support Demo Zingtree+Hosted 8ff31ce9afa24572803dc0ed433f8904 2019-08-21 08:50:37 2019-08-21 08:51:00 23 0
Agent Script - Outbound Sales Gallery User Gallery67-15664039891445 2019-08-21 09:13:10 2019-08-21 09:13:31 21 Emma Front Office 0
Agent Script - Set Appointment Gallery User Gallery53-15664040322250 2019-08-21 09:13:53 2019-08-21 09:14:00 7 0
Narcissist Test V3 Gallery User Gallery84-15664040745914 2019-08-21 09:14:35 2019-08-21 09:14:47 12 7 0
Zingtree Tour Zingtree+Hosted cf2f692e0846438eb044109b89c28cbe 2019-08-21 09:14:30 2019-08-21 09:14:50 20 0
Document Node PDF + Email Demo Gallery User Gallery135-15664043424754 2019-08-21 09:19:03 2019-08-21 09:19:12 9 Orange 10 https://uploads.zingtree.com/pdf/Results!-Gallery135-15664043424754-1566404352.pdf 0
How to Deal With Angry Customers Gallery User Gallery120-15664051056928 2019-08-21 09:31:46 2019-08-21 09:32:33 47 Edge en London United Kingdom 193.117.151.138 England +01:00 %2B01%3A00 WC2N 5RJ
TV Power Troubleshooter Zingtree+Hosted 63265adb51ff40238fe612062fe51918 2019-08-21 09:32:39 2019-08-21 09:32:55 16 0
Narcissist Test V3 Gallery User Gallery84-15664052377092 2019-08-21 09:33:58 2019-08-21 09:34:31 33 5 12 8 0
Advanced Logic Node Demo Gallery User Gallery137-15664053081821 2019-08-21 09:35:09 2019-08-21 09:35:20 11 35 0 oh
Technical Troubleshooter Example Gallery User Gallery23-15664053364059 2019-08-21 09:35:37 2019-08-21 09:35:54 17 0
Call Script with Objections Gallery User Gallery140-1566411100847 2019-08-21 11:11:40 2019-08-21 11:12:16 36 0
Agent Script - Set Appointment Gallery User Gallery53-15664118238312 2019-08-21 11:23:44 2019-08-21 11:25:15 91 0
Advanced Logic Node Demo Gallery User Gallery137-15664125654601 2019-08-21 11:36:06 2019-08-21 11:36:49 43 27 0 wa
TV Power Troubleshooter Zingtree+Hosted e89cb02be3484bc78d4f244cbaabecfe 2019-08-21 11:46:55 2019-08-21 11:47:41 46 0
Pneumococcal Vaccine Decision Tree Zingtree+Hosted f114a968fe6346058532806655073544 2019-08-21 12:03:55 2019-08-21 12:04:35 40 0
Basic Support Demo Gallery User Gallery88-15664132061833 2019-08-21 11:46:47 2019-08-21 12:34:33 2866 0
Freshdesk - Create Ticket Demo Gallery User Gallery136-15664167881141 2019-08-21 12:46:29 2019-08-21 12:46:55 26 0
Document Node PDF + Email Demo Gallery User Gallery135-15664170018028 2019-08-21 12:50:02 2019-08-21 12:50:09 7 Red 9 https://uploads.zingtree.com/pdf/Results!-Gallery135-15664170018028-1566417009.pdf 0
Diabetes Risk Test Gallery User Gallery42-15664171033090 2019-08-21 12:51:44 2019-08-21 12:52:10 26 8
Diabetes Risk Test Gallery User Gallery42-15664171622735 2019-08-21 12:52:42 2019-08-21 12:52:49 7 2
Agent Script - Outbound Sales Gallery User Gallery67-15664171603597 2019-08-21 12:52:41 2019-08-21 12:53:30 49 Nadira President/CEO 08/30/2019 0
Agent Script - Set Appointment Gallery User Gallery53-15664180119205 2019-08-21 13:06:51 2019-08-21 13:07:02 11 0
Zingtree Tour Zingtree+Hosted f93aa5dfbd7c4bdb83003180cb230909 2019-08-21 13:18:17 2019-08-21 13:18:48 31 0
Simple Sales Funnel Demo Gallery User Gallery50-15664193226442 2019-08-21 13:28:43 2019-08-21 13:28:46 3 0
Picking the Perfect Pair: How to Find the Right Glasses Gallery User Gallery96-15664193567926 2019-08-21 13:29:17 2019-08-21 13:30:03 46 0 Edge en Las Vegas United States 24.234.123.138 Nevada -07:00 -07%3A00 89044
Session Summary Demo Gallery User 4ebf377d63654b28a86f470f76d75ad8 2019-08-21 14:06:42 2019-08-21 14:06:58 16 Ravi Hejmadi 0
Session Summary Demo Gallery User aa676ba7c1f3432592da4e59b8715848 2019-08-21 14:07:35 2019-08-21 14:08:04 29 Ravi Hejmadi 0
Basic Support Demo Gallery User Gallery88-15664218091021 2019-08-21 14:10:10 2019-08-21 14:10:38 28 0
Personality Test Demo Gallery User Gallery40-15664222572195 2019-08-21 14:17:37 2019-08-21 14:17:56 19 51
Zingtree Tour Zingtree+Hosted 3b0df1b6227f4182a889637d4d702397 2019-08-21 14:38:47 2019-08-21 14:40:02 75 0
Session Summary Demo Gallery User 4c23564f2a0a48ec90081f8f5fac216e 2019-08-21 14:43:28 2019-08-21 14:45:06 98 Ravi Hejmadi 0
TV Power Troubleshooter Zingtree+Hosted 4b0731ebdadb405b882b65d99283f39d 2019-08-21 14:48:51 2019-08-21 14:50:44 113 0
Skin Acne Assessment Gallery User Gallery144-15664242853661 2019-08-21 14:51:27 2019-08-21 14:51:36 9 0 0
Basic Support Demo Gallery User Gallery88-1566424318120 2019-08-21 14:51:58 2019-08-21 14:52:59 61 0
Basic Support Demo #2 Gallery User Gallery92-15664244596967 2019-08-21 14:54:20 2019-08-21 14:54:39 19 0
Technical Troubleshooter Example Gallery User Gallery23-15664245079504 2019-08-21 14:55:09 2019-08-21 14:55:16 7 0
How to Deal With Angry Customers Gallery User Gallery120-15664246274987 2019-08-21 14:57:09 2019-08-21 14:58:34 85 Chrome en Makati Philippines 119.95.196.132 National Capital Region +08:00 %2B08%3A00 1214
Technical Product Support Gallery User Gallery24-15664247727100 2019-08-21 14:59:33 2019-08-21 14:59:59 26 0
Basic Support Demo Gallery User Gallery88-15664281176473 2019-08-21 15:55:17 2019-08-21 15:55:26 9 0
Simple Logic Node Demo Gallery User Gallery101-15664293222838 2019-08-21 16:15:23 2019-08-21 16:15:27 4 Apple 0
Math Expression Demo Gallery User Gallery139-15664294953396 2019-08-21 16:18:16 2019-08-21 16:18:29 13 5 5 0
Picking the Perfect Pair: How to Find the Right Glasses Zingtree+Hosted 21e801d714ab43959ebc4b5ae8703b4a 2019-08-21 18:33:46 2019-08-21 18:34:13 27 0 Safari en Springfield United States 99.203.120.35 Missouri -05:00 -05%3A00 65801
Bicycle Types: Which Bike Is Right for You? Gallery User Gallery98-15664387003876 2019-08-21 18:51:41 2019-08-21 18:51:53 12 0
Simple Sales Funnel Demo Gallery User Gallery50-15664409285531 2019-08-21 19:28:48 2019-08-21 19:28:52 4 0
Simple Sales Funnel Demo Gallery User Gallery50-15664409374713 2019-08-21 19:28:58 2019-08-21 19:29:01 3 0
How to Deal With Angry Customers Gallery User Gallery120-15664429701129 2019-08-21 20:02:58 2019-08-21 20:04:31 93 0 Chrome en Makati Philippines 110.54.229.128 National Capital Region +08:00 %2B08%3A00 1214
What Computing Devices do I Need? Gallery User a0f4c867ecd944e6a3350dfc41226587 2019-08-21 20:50:12 2019-08-21 20:50:50 38 Yes 0
TV Power Troubleshooter Zingtree+Hosted 35b8518ae7f146acbb7559ef82d815b7 2019-08-21 21:27:30 2019-08-21 21:27:45 15 0
Personality Test Demo Gallery User Gallery40-15664530079767 2019-08-21 22:50:08 2019-08-21 22:52:21 133 51
Personality Test Demo Gallery User Gallery40-1566453875325 2019-08-21 23:04:35 2019-08-21 23:04:39 4 0
Advanced Logic Node Demo Gallery User Gallery137-15664578313571 2019-08-22 00:10:32 2019-08-22 00:10:58 26 34 0 ny
Basic Support Demo Gallery User Gallery88-15664611502875 2019-08-22 01:05:52 2019-08-22 01:06:06 14 0
Astrology Site - End-user Troubleshooting karthik.yermunja@atherenergy.com FD14-31019 2019-08-22 01:42:30 2019-08-22 01:42:44 14 https://d3h0owdjgzys62.cloudfront.net/app-assets/2fafb10b059d684391f2/app/modal.html?appId=359 Firefox en Bangalore India 106.51.73.107 Atria Convergence Technologies Pvt. Ltd. actcorp.in Karnataka +05:30 %2B05%3A30 560018
Basic Support Demo Gallery User Gallery88-15664635914797 2019-08-22 01:46:32 2019-08-22 01:46:55 23 0
Webhook Zip Code Demo (with Logic Node) Gallery User Gallery66-15664650829892 2019-08-22 02:11:22 2019-08-22 02:11:28 6 0 96161
Agent Script - Outbound Sales Gallery User Gallery67-15664735457470 2019-08-22 04:32:26 2019-08-22 04:33:07 41 Matsoe President/CEO 0
Agent Script - Outbound Sales Gallery User Gallery67-15664746676272 2019-08-22 04:51:10 2019-08-22 04:52:54 104 Melanie Front Office 08/29/2019 0
Skin Acne Assessment Gallery User f094ec14390849e8b99f693d7a12c5c9 2019-08-22 05:38:17 2019-08-22 05:38:26 9 0 0
Legal Demo - Underage Drinking Laws in the USA Gallery User Gallery142-15664794411766 2019-08-22 06:10:42 2019-08-22 06:11:14 32 0
Agent Script - Outbound Sales Gallery User Gallery67-15664801283173 2019-08-22 06:22:10 2019-08-22 06:22:27 17 uyjj Front Office 0
Call Script with Objections Gallery User Gallery140-15664802284841 2019-08-22 06:23:48 2019-08-22 06:24:25 37 0
Picking the Perfect Pair: How to Find the Right Glasses Gallery User Gallery96-15664805103826 2019-08-22 06:28:31 2019-08-22 06:28:51 20 0 Chrome en Coventry United Kingdom 31.185.132.131 England +01:00 %2B01%3A00 CV1 1LP
Scoring Demo Gallery User Gallery68-15664812945809 2019-08-22 06:41:35 2019-08-22 06:41:48 13 1 1 0 2002 1 1 12 1012 2019-08-22 06:41:48 2 2
HR Questionnaire Gallery User Gallery47-15664813246526 2019-08-22 06:42:05 2019-08-22 06:42:33 28 24
Pneumococcal Vaccine Decision Tree Gallery User Gallery18-15664826095653 2019-08-22 07:03:32 2019-08-22 07:03:42 10 0
What Computing Devices do I Need? Gallery User Gallery83-15664842567525 2019-08-22 07:30:57 2019-08-22 07:30:59 2 0
Astrology Site - End-user Troubleshooting Gallery User Gallery73-15664846117536 2019-08-22 07:36:52 2019-08-22 07:37:12 20 Chrome en Hasselt Belgium 212.123.2.66 Limburg +02:00 %2B02%3A00 3512
Basic Support Demo Gallery User Gallery88-15664846614760 2019-08-22 07:37:42 2019-08-22 07:37:43 1 0
Basic Support Demo Gallery User Gallery88-15664850525136 2019-08-22 07:44:13 2019-08-22 07:44:17 4 0
Basic Support Demo Gallery User Gallery88-15664857524183 2019-08-22 07:55:52 2019-08-22 07:56:01 9 0
Agent Script - Set Appointment Gallery User Gallery53-15664859037112 2019-08-22 07:58:24 2019-08-22 07:58:28 4 0
Basic Support Demo #2 Gallery User Gallery92-15664859445759 2019-08-22 07:59:05 2019-08-22 07:59:10 5 0
How to Deal With Angry Customers Gallery User Gallery120-15664878682120 2019-08-22 08:31:08 2019-08-22 08:31:18 10 Safari en Farmers Branch United States 192.154.176.195 Texas -05:00 -05%3A00 75234
Agent Script - Outbound Sales Gallery User Gallery67-15664879098981 2019-08-22 08:31:50 2019-08-22 08:32:24 34 tt President/CEO 0
Zingtree Tour Zingtree+Hosted 97fc89de18eb4c519c03daf2947e7002 2019-08-22 08:44:11 2019-08-22 08:45:54 103 Health and Medical Triage 0
Basic Support Demo Gallery User Gallery88-15664892253619 2019-08-22 08:53:46 2019-08-22 08:54:01 15 0
Astrology Site - End-user Troubleshooting Gallery User Gallery73-15664896796676 2019-08-22 09:01:20 2019-08-22 09:01:28 8 0 Chrome en Barcelona Spain 88.9.83.174 Catalunya +02:00 %2B02%3A00 08036
Agent Script - Set Appointment Gallery User Gallery53-15664908124611 2019-08-22 09:20:12 2019-08-22 09:20:17 5 0
Agent Script - Set Appointment Gallery User Gallery53-15664908254833 2019-08-22 09:20:25 2019-08-22 09:20:31 6 0
Call Script with Objections Gallery User Gallery140-15664908318154 2019-08-22 09:20:32 2019-08-22 09:20:44 12 0
How to Deal With Angry Customers Gallery User Gallery120-15664908494101 2019-08-22 09:20:50 2019-08-22 09:20:53 3 0 Safari en San Francisco United States 4.14.110.154 California -07:00 -07%3A00 94102
Skin Acne Assessment Gallery User Gallery144-15664923487948 2019-08-22 09:45:51 2019-08-22 09:46:02 11 0 0 0 3 0
Narcissist Test V3 Gallery User Gallery84-15664922126704 2019-08-22 09:43:34 2019-08-22 09:46:07 153 2 15 15 0
Basic Support Demo Gallery User Gallery88-15664924376641 2019-08-22 09:47:18 2019-08-22 09:47:41 23 0
Agent Script - Outbound Sales Gallery User Gallery67-15664954502763 2019-08-22 10:37:30 2019-08-22 10:39:33 123 Mary Front Office 0
Session Summary Demo Zingtree+Hosted e31ea34a55d6442d97bc6e19165af7b1 2019-08-22 10:42:08 2019-08-22 10:42:14 6 Matt Test 0
Agent Script - Outbound Sales Gallery User Gallery67-15664958733438 2019-08-22 10:44:35 2019-08-22 10:46:21 106 roni told President/CEO 0
Technical Product Support Gallery User Gallery24-15664965409098 2019-08-22 10:55:40 2019-08-22 10:56:08 28 0
Call Script with Objections Gallery User Gallery140-15664990575788 2019-08-22 11:37:38 2019-08-22 11:39:33 115 vvv 0
Basic Support Demo Zingtree+Hosted 81a4b88c0a454c90a0a360303de6ac9c 2019-08-22 12:02:04 2019-08-22 12:02:41 37 0
Technical Product Support Gallery User Gallery24-15665006499995 2019-08-22 12:04:09 2019-08-22 12:04:51 42 0
Life Insurance Sales (with Form Fields & Verification) Gallery User Gallery122-15665016942834 2019-08-22 12:21:35 2019-08-22 12:22:35 60 bill@zingtree.com Bill Dettering 8884547872 0
Basic Support Demo Gallery User bdad2fce86b645019314569be3220457 2019-08-22 12:58:20 2019-08-22 12:58:51 31 0
Pneumococcal Vaccine Decision Tree Gallery User Gallery18-15665038954632 2019-08-22 12:58:16 2019-08-22 12:59:18 62 0
Personality Test Demo Gallery User Gallery40-15665040172082 2019-08-22 13:00:18 2019-08-22 13:01:51 93 46
What Computing Devices do I Need? Gallery User Gallery83-15665044547557 2019-08-22 13:07:36 2019-08-22 13:07:53 17 1 https://uploads.zingtree.com/pdf/Recommended_Devices-Gallery83-15665044547557-1566504472.pdf Yes 0
Tree Node - Launch and Return (Starting Tree) Gallery User Gallery110-15665053692450 2019-08-22 13:22:49 2019-08-22 13:22:54 5 0
Call Script with Objections Gallery User Gallery140-15665061486563 2019-08-22 13:35:50 2019-08-22 13:36:56 66 0
Diabetes Risk Test Gallery User Gallery42-15665127848777 2019-08-22 15:26:25 2019-08-22 15:27:02 37 3
Lower Back Pain Diagnosis Gallery User Gallery99-15665128798196 2019-08-22 15:28:01 2019-08-22 15:28:22 21 0
Sample Zendesk Integration Gallery User b36cbc61020a4998a9628c63ded1fd70 2019-08-22 15:27:49 2019-08-22 15:29:36 107 0
Zingtree Tour Gallery User Gallery54-15665130947123 2019-08-22 15:31:36 2019-08-22 15:31:54 18 0
Agent Script - Set Appointment Gallery User Gallery53-15665210727693 2019-08-22 17:44:33 2019-08-22 17:44:41 8 0
HR Questionnaire Gallery User Gallery47-15665226723312 2019-08-22 18:11:13 2019-08-22 18:11:24 11 26
Advanced Logic Node Demo Gallery User Gallery137-156652692120 2019-08-22 19:22:02 2019-08-22 19:22:19 17 21 0 66
Form Fields and Data Entry Demo Gallery User Gallery55-15665269056500 2019-08-22 19:21:46 2019-08-22 19:23:09 83 Support test English Andrew 0 1
Basic Support Demo Gallery User Gallery88-15665283908492 2019-08-22 19:46:31 2019-08-22 19:46:57 26 0
Scheduling Demo Gallery User Gallery117-15665293606627 2019-08-22 20:02:40 2019-08-22 20:04:11 91 50 Internal Company Send to and from App and Zingtree Yo@tu.com Sql Name 0 Site. Com
TV Power Troubleshooter Zingtree+Hosted 8239dc3e87d44036b70e30ee92761d8c 2019-08-22 20:37:10 2019-08-22 20:37:16 6 0
Form Fields and Data Entry Demo Gallery User Gallery55-15665360289125 2019-08-22 21:53:49 2019-08-22 21:54:20 31 Technology Nomas English Jesus 0 0
TV Power Troubleshooter Zingtree+Hosted ff6a09cd35214a99872dc31987cb374b 2019-08-22 21:59:12 2019-08-22 21:59:34 22 0
Button Customization Demo Gallery User Gallery112-15665404656405 2019-08-22 23:07:45 2019-08-22 23:07:48 3 0
Simple Sales Funnel Demo Gallery User Gallery50-15665409543976 2019-08-22 23:15:55 2019-08-22 23:16:13 18 0
TV Power Troubleshooter Zingtree+Hosted 3a87230a84744e77a311b663e4ccfa89 2019-08-23 00:35:29 2019-08-23 00:35:42 13 0
Basic Support Demo Zingtree Hosted abe122fc10784b96b64dceed47deec3c 2019-08-23 02:14:34 2019-08-23 02:14:42 8 0
Garage Door Opener Troubleshooter Gallery User Gallery124-15665547723755 2019-08-23 03:06:13 2019-08-23 03:07:13 60 0
Bicycle Types: Which Bike Is Right for You? Gallery User Gallery98-15665557296177 2019-08-23 03:22:10 2019-08-23 03:22:23 13 0
Astrology Site - End-user Troubleshooting Gallery User 469370b798274e94b6e1e908d29b7335 2019-08-23 04:50:57 2019-08-23 04:51:24 27 0 Chrome de Hamburg Germany 46.189.76.226 Hamburg +02:00 %2B02%3A00 22085
Sample Zendesk Integration Gallery User Gallery17-15665624073378 2019-08-23 05:13:28 2019-08-23 05:13:44 16 0
Astrology Site - End-user Troubleshooting Gallery User Gallery73-15665624391747 2019-08-23 05:14:00 2019-08-23 05:14:07 7 0 Chrome en London United Kingdom 217.138.77.130 England +01:00 %2B01%3A00 WC2H 7NJ
Diabetes Risk Test Zingtree+Hosted 989ddc9285d0446a8cca78b5ac8baf4b 2019-08-23 05:42:11 2019-08-23 05:42:41 30 3
Agent Script - Set Appointment Gallery User Gallery53-15665650231588 2019-08-23 05:57:04 2019-08-23 05:57:15 11 0
Technical Product Support Gallery User Gallery24-1566566205932 2019-08-23 06:16:46 2019-08-23 06:16:55 9 0
Technical Troubleshooter Example Gallery User Gallery23-15665671617348 2019-08-23 06:32:42 2019-08-23 06:33:06 24 0
Picking the Perfect Pair: How to Find the Right Glasses Gallery User Gallery96-15665689927496 2019-08-23 07:03:15 2019-08-23 07:03:36 21 Chrome en Stone Mountain United States 70.231.12.216 Georgia -04:00 -04%3A00 30083
How to Deal With Angry Customers Gallery User Gallery120-15665696093086 2019-08-23 07:13:32 2019-08-23 07:16:33 181 0 Chrome en Taguig Philippines 112.203.33.148 Rizal +08:00 %2B08%3A00 1632
How to Deal With Angry Customers Gallery User Gallery120-15665709249261 2019-08-23 07:35:25 2019-08-23 07:36:04 39 Firefox en Paris France 193.55.93.2 Ile-de-France +02:00 %2B02%3A00 75000
Astrology Site - End-user Troubleshooting Gallery User Gallery73-15665711857971 2019-08-23 07:39:46 2019-08-23 07:40:04 18 Firefox en Verden Germany 79.244.120.5 Niedersachsen +02:00 %2B02%3A00 27283
TV Power Troubleshooter Zingtree+Hosted 9b500da28de644b69399fa644148e059 2019-08-23 07:40:41 2019-08-23 07:40:54 13 0
Pneumococcal Vaccine Decision Tree Zingtree+Hosted c65c3412413a4d828041db7fafd3d52b 2019-08-23 08:58:28 2019-08-23 09:16:53 1105 0
Agent Script - Outbound Sales Gallery User Gallery67-15665795175609 2019-08-23 09:58:38 2019-08-23 10:03:30 292 Greg Decision Maker 0
Zingtree Tour Zingtree+Hosted bcf4268b07164e1cbb9b1513d8e616eb 2019-08-23 11:08:55 2019-08-23 11:09:23 28 0
Legal Demo - Underage Drinking Laws in the USA Gallery User Gallery142-15665852242567 2019-08-23 11:33:45 2019-08-23 11:35:22 97 0
Life Insurance Sales (with Form Fields & Verification) Gallery User Gallery122-15665863242083 2019-08-23 11:52:06 2019-08-23 11:52:52 46 CA 1714 Rees Rd San Marcos name: Eitienne H Hitchcock
phone: 8583612033
email: ehitchcock@dexcom.com
address1: 1714 Rees Rd
address2:
city: San Marcos
State: CA
zip: 92069-3323
score: 0
ehitchcock@dexcom.com Eitienne H Hitchcock 8583612033 0 Q: ?
A: Continue
Q: How long should the policy last?
A: 10 years or less
Q: Pick an option
A: 5 year term
92069-3323
Garage Door Opener Troubleshooter Gallery User Gallery124-15665863965503 2019-08-23 11:53:17 2019-08-23 11:53:29 12 0
Diabetes Risk Test Gallery User Gallery42-15665863922740 2019-08-23 11:53:13 2019-08-23 11:53:54 41 1
Call Script with Objections Gallery User Gallery140-15665867189249 2019-08-23 11:58:39 2019-08-23 11:59:32 53 yes there is a run sheet that supports 0
Document Node PDF + Email Demo Gallery User Gallery135-15665868112413 2019-08-23 12:00:12 2019-08-23 12:00:29 17 Orange 10 c@c.com https://uploads.zingtree.com/pdf/Results!-Gallery135-15665868112413-1566586829.pdf 0
What Computing Devices do I Need? Gallery User Gallery83-15665868835444 2019-08-23 12:01:23 2019-08-23 12:01:58 35 1 https://uploads.zingtree.com/pdf/Recommended_Devices-Gallery83-15665868835444-1566586917.pdf Yes 0
Basic Support Demo Gallery User Gallery88-15665877508899 2019-08-23 12:15:52 2019-08-23 12:16:03 11 0
Pneumococcal Vaccine Decision Tree Zingtree+Hosted ac2a2378f5104bcbb3b1cea4bc87a10f 2019-08-23 12:49:18 2019-08-23 12:54:20 302 0
Technical Product Support Gallery User Gallery24-15665943532595 2019-08-23 14:05:53 2019-08-23 14:05:58 5 0
Basic Support Demo #2 Gallery User Gallery92-15665946924044 2019-08-23 14:11:33 2019-08-23 14:11:44 11 0
Pneumococcal Vaccine Decision Tree Zingtree+Hosted d1466d6922b645be998ccb5315e7ef4d 2019-08-23 14:11:23 2019-08-23 14:12:32 69 0
Astrology Site - End-user Troubleshooting Gallery User Gallery73-15665957337740 2019-08-23 14:28:53 2019-08-23 14:29:19 26 Chrome en Troy United States 199.119.96.76 Alabama -05:00 -05%3A00 36081
Agent Script - Outbound Sales Gallery User Gallery67-15665957661987 2019-08-23 14:29:27 2019-08-23 14:30:48 81 Dan Front Office 08/23/2019 0
Agent Script - Set Appointment Gallery User Gallery53-15665958776062 2019-08-23 14:31:17 2019-08-23 14:31:30 13 0
HR Questionnaire Gallery User Gallery47-15665959719966 2019-08-23 14:32:52 2019-08-23 14:34:16 84 39
Legal Demo - Underage Drinking Laws in the USA Gallery User Gallery142-15666033048462 2019-08-23 16:35:05 2019-08-23 16:35:46 41 0
Basic Support Demo Gallery User Gallery88-15666041912782 2019-08-23 16:49:52 2019-08-23 16:49:58 6 0
Call Script with Objections Gallery User Gallery140-15666041928509 2019-08-23 16:49:52 2019-08-23 16:50:08 16 0
Astrology Site - End-user Troubleshooting Gallery User Gallery73-15666041857003 2019-08-23 16:49:46 2019-08-23 16:50:11 25 Chrome en Hermosillo Mexico 189.173.180.91 Sonora -07:00 -07%3A00 83299
Picking the Perfect Pair: How to Find the Right Glasses Gallery User Gallery96-15666041933686 2019-08-23 16:49:54 2019-08-23 16:50:21 27 0 Chrome en Oakland United States 73.202.156.58 California -07:00 -07%3A00 94601
Agent Script - Outbound Sales Gallery User Gallery67-15666042261734 2019-08-23 16:50:27 2019-08-23 16:51:07 40 sa Front Office 08/23/2019 0
Diabetes Risk Test Gallery User Gallery42-15666043017778 2019-08-23 16:51:42 2019-08-23 16:51:52 10 1
Intercom.io Demo Gallery User Gallery59-15666043207927 2019-08-23 16:52:01 2019-08-23 16:52:22 21 0
Freshdesk - Create Ticket Demo Gallery User Gallery136-15666055221116 2019-08-23 17:12:03 2019-08-23 17:12:11 8 0
Basic Support Demo Zingtree+Hosted 7208f064b30a485298c73112d26d18b6 2019-08-23 17:30:46 2019-08-23 17:30:57 11 0
Skin Acne Assessment Gallery User Gallery144-15666095124105 2019-08-23 18:18:34 2019-08-23 18:22:18 224 0 1 1 0 0 0 1 1 1 0 19 5 4 1 1 0 6
Zingtree Tour Zingtree+Hosted 76c9239d46f94304a18afa6ef473f708 2019-08-23 18:24:37 2019-08-23 18:28:50 253 0
Webhook Zip Code Demo (with Logic Node) Gallery User Gallery66-15666128372468 2019-08-23 19:13:58 2019-08-23 19:14:04 6 0 96161
Basic Support Demo Gallery User Gallery88-15666155821949 2019-08-23 19:59:42 2019-08-23 19:59:58 16 0
Diabetes Risk Test Gallery User Gallery42-15666281331423 2019-08-23 23:28:57 2019-08-23 23:29:32 35 2
Master Tree Demo Gallery User Gallery116-15666439149833 2019-08-24 03:51:55 2019-08-24 03:52:05 10 0
Agent Script - Set Appointment Gallery User Gallery53-15666580438271 2019-08-24 07:47:24 2019-08-24 07:47:46 22 0
Advanced Logic Node Demo Gallery User Gallery137-1566664716323 2019-08-24 09:38:37 2019-08-24 09:39:07 30 25 0 ny
HR Questionnaire Gallery User Gallery47-15666647965814 2019-08-24 09:39:57 2019-08-24 09:40:50 53 43
Picking the Perfect Pair: How to Find the Right Glasses Gallery User Gallery96-15666652132264 2019-08-24 09:46:54 2019-08-24 09:48:56 122 Chrome en San Jose Costa Rica 170.150.58.35 San Jose -06:00 -06%3A00 10102
Webhook Zip Code Demo (with Logic Node) Gallery User Gallery66-15666699488715 2019-08-24 11:05:49 2019-08-24 11:05:55 6 0 96161
Webhook Zip Code Demo (with Logic Node) Gallery User Gallery66-15666715207389 2019-08-24 11:32:00 2019-08-24 11:32:07 7 0 96161
TV Power Troubleshooter Zingtree+Hosted d7876256749e43bc9e13136ffc7e5b81 2019-08-24 12:09:57 2019-08-24 12:10:22 25 0
Document Node PDF + Email Demo Gallery User Gallery135-15666757883912 2019-08-24 12:43:08 2019-08-24 12:43:16 8 Red 9 https://uploads.zingtree.com/pdf/Results!-Gallery135-15666757883912-1566675796.pdf 0
What in the World Do You Bring to a Holiday Party? Gallery User Gallery61-1566694557434 2019-08-24 17:56:00 2019-08-24 17:56:10 10 0
Zingtree Tour Zingtree+Hosted 755e468429534d2b914ec2cf14d54dd8 2019-08-24 19:26:37 2019-08-24 20:08:10 2493 0
Webhook Zip Code Demo (with Logic Node) Gallery User Gallery66-15667084627001 2019-08-24 21:47:42 2019-08-24 21:47:48 6 0 96161
Custom Forms Example Bill Zing (in preview) 9b02ca7c0eeb48f88805f498795d67c0 2019-08-24 22:14:09 2019-08-24 22:14:32 23 Bill Zing ABC D 2001 DEF G 2002 0
Webhook Zip Code Demo (with Logic Node) Gallery User Gallery66-15667137411165 2019-08-24 23:15:41 2019-08-24 23:15:47 6 0 96161
Webhook Zip Code Demo (with Logic Node) Gallery User Gallery66-15667145451559 2019-08-24 23:29:06 2019-08-24 23:29:12 6 0 96161